Other Surface Observations
Issued by NWS Tucson, AZ

Home | Current Version | Previous Version | Text Only | Print | Product List | Glossary On
Versions: 1 2 3 4 5 6 7 8 9 10 11 12 13 14 15 16 17 18 19 20 21 22 23 24 25 26 27 28 29 30 31 32 33 34 35 36 37 38 39 40 41 42 43 44 45 46 47 48 49 50
000
SXUS55 KTWC 281815
OSOTWC

WEATHER ROUNDUP FOR SOUTHEAST ARIZONA
NATIONAL WEATHER SERVICE TUCSON AZ
1115 AM MST THU MAY 28 2015

AZZ504>506-514-281915-
LOCATION       SKY/WX    TMP DP  RH WIND       PRES   REMARKS
TUCSON         SUNNY     88  27  11 VRB3      30.02S
DAVIS-MONTHAN  SUNNY     87  27  11 E2        30.00S
CHILDRENS PARK N/A       82  31  16 SE1               PIMA CO DEQ
ALVERNON/22ND  N/A      N/A N/A N/A N/A               PIMA CO DEQ
CHERRY/GLENN   N/A      N/A N/A N/A N/A               PIMA CO DEQ
TANGERINE      N/A       83 N/A N/A S6                PIMA CO DEQ
CONTL RANCH    N/A       85  32  15 SE5               PIMA CO DEQ
GRANT/1ST      N/A       83  31  15 SW2               PIMA CO DEQ
CRAYCROFT/22ND N/A      N/A N/A N/A N/A               PIMA CO DEQ
GOLFLINKS/KOLB N/A      N/A N/A N/A N/A               PIMA CO DEQ
AJO/12TH       N/A       82  31  16 S3                PIMA CO DEQ
SAGUARO EAST   N/A      N/A N/A N/A N/A               PIMA CO DEQ
FAIRGROUNDS    N/A       85 N/A N/A E5                PIMA CO DEQ
SAGUARO        N/A       89  32  13 SW5               *SABINO CYN
SAN CARLOS     N/A       87  26  11 SE3               *SAN CARLOS
GREEN VALLEY   N/A       83  29  14 S0                PIMA CO DEQ
HORSE CAMP CYN N/A       82  28  14 SW4               *ARAVAIPA CYN
RINCON MTNS    N/A       71  25  18 SW3               *NR MANNING CAMP
$$

AZZ509>511-281915-
LOCATION       SKY/WX    TMP DP  RH WIND       PRES   REMARKS
SAFFORD        SUNNY     86  26  11 NW5       30.01F
STRAY HORSE    N/A       68  12  11 W9G16             *
TRAIL CABIN    N/A       76  18  11 NW8G12            *N OF GRANVILLE
BLACK HILLS    N/A       87  26  11 S4G10             *N OF FT THOMAS
DRY LAKE       N/A       71  23  16 W4G10             *NATANES MTNS
NOON CREEK     N/A       81  27  14 NE6G11            *PINALENO MTNS
COLUMBINE      N/A       60  11  14 SE4G11            *PINALENO MTNS
GUTHRIE        N/A       74  22  14 S5G10             *SW OF GUTHRIE
$$

AZZ502-503-513-281915-
LOCATION       SKY/WX    TMP DP  RH WIND       PRES   REMARKS
NOGALES        SUNNY     85  24  11 S9        30.08S
SELLS          N/A       89  34  14 NW6G11            *
SASABE         N/A       85  30  14 NE7G11            *ALTAR VLY
HOPKINS        N/A       72  23  16 SE8G19            *SANTA RITA MTNS
CARR CYN       N/A       79  27  15 NE6G12            *W OF HEREFORD
$$

AZZ507-508-512-281915-
LOCATION       SKY/WX    TMP DP  RH WIND       PRES   REMARKS
SIERRA VISTA   SUNNY     80  26  13 SE9       30.13F
DOUGLAS        SUNNY     80  27  14 VRB5      30.10F
EMPIRE MTNS    N/A       81  26  13 SE8G15            *LAS CIENEGAS NCA
MULESHOE RANCH N/A       81  24  12 S5G11             *PRESERVE
HEADQUARTERS   N/A       81  24  12 W5G11             *CHIRICAHUA MTNS
$$

.............................NOTES.............................
THIS IS AN AUTOMATED COLLECTIVE WITH MINIMAL QUALITY CONTROL.
PIMA CO DEQ SITES HAVE NONSTANDARD WIND SENSOR HEIGHTS.
PIMA CO DEQ SITES DO NOT REPORT WIND GUSTS.
* INDICATES WIND SENSORS LOCATED AT 20 FEET INSTEAD OF 33 FEET.
..............................KEY..............................
SKY/WX - SKY CONDITION/WEATHER
TMP    - TEMPERATURE IN FAHRENHEIT
DP     - DEWPOINT IN FAHRENHEIT
RH     - RELATIVE HUMIDITY IN PERCENT
WIND   - DIRECTION AND SPEED IN MILES PER HOUR (MPH)
VRB    - VARIABLE WIND DIRECTION
PRES   - MEAN SEA LEVEL PRESSURE IN INCHES OF MERCURY
         F - FALLING PRESSURE   R - RISING PRESSURE
         S - STEADY PRESSURE
VSB    - VISIBILITY IN MILES
HX     - HEAT INDEX IN FAHRENHEIT
WCI    - WIND CHILL INDEX IN FAHRENHEIT
N/A    - NOT AVAILABLE
AFB    - AIR FORCE BASE
         DAVIS-MONTHAN IS DAVIS-MONTHAN AIR FORCE BASE
CYN    - CANYON
MTNS   - MOUNTAINS
NCA    - NATIONAL CONSERVATION AREA
NR     - NEAR
VLY    - VALLEY
CONTL  - CONTINENTAL
PIMA CO DEQ - PIMA COUNTY DEPT OF ENVIRONMENTAL QUALITY



USA.gov is the U.S. government's official web portal to all federal, state and local government web resources and services.